Other Public Products
Issued by NWS Grand Forks, ND

Home | Current Version | Previous Version | Text Only | Print | Product List | Glossary On
Versions: 1 2 3 4 5 6 7 8 9 10 11 12 13 14 15 16 17 18 19 20 21 22 23 24 25 26 27 28 29 30 31 32 33 34 35 36 37 38 39 40 41 42 43 44 45 46 47 48 49 50
000
FPUS83 KFGF 281631
OPUFGF
PRAIRIE TO PINES WEATHER ROUNDUP
NATIONAL WEATHER SERVICE EASTERN NORTH DAKOTA/GRAND FORKS ND
1100 AM CDT SUN AUG 28 2016

 **SATELLITE DATA USED TO AUGMENT SKY COVER AT AUTOMATED STATIONS**
 *****  WEATHER ACROSS EASTERN NORTH DAKOTA  *****

CITY           SKY/WX    TMP DP  RH WIND       PRES   REMARKS
GRAND FORKS    MOSUNNY   73  62  68 SE18      29.98F
GRAND FORKS AF SUNNY     72  63  74 S12       29.98F
GRAND CITY NWS   N/A     73 N/A N/A SE13        N/A
BUXTON           N/A     73  68  86 S15         N/A
DEVILS LAKE    SUNNY     73  66  78 SE14      29.95S
FARGO          SUNNY     72  61  68 SE21G26   30.01F
WAHPETON ARPT  SUNNY     75  61  60 SE12G17   30.02S
$$

 *****  WEATHER ACROSS CENTRAL AND WESTERN NORTH DAKOTA  *****

CITY           SKY/WX    TMP DP  RH WIND       PRES   REMARKS
JAMESTOWN      MOSUNNY   73  66  78 S15       29.95S
BISMARCK       SUNNY     74  63  68 SE8       29.91S
MINOT          SUNNY     80  60  50 SE9       29.87S
MINOT AFB      SUNNY     79  60  51 SE12      29.86S
GARRISON         N/A     74  61  63 S8        29.89F
WILLISTON      CLOUDY    75  54  47 SW8       29.86S
DICKINSON      SUNNY     78  52  40 VRB3      29.90S
HETTINGER      SUNNY     80  55  42 W3        29.94S
$$

 *****  OTHER OBSERVATIONS NORTHEAST NORTH DAKOTA  *****

CITY           SKY/WX    TMP DP  RH WIND       PRES   REMARKS
WALHALLA       FAIR      64  64 100 SE9       29.97F
LANGDON        FAIR      79  66  65 S22       29.96S
CAVALIER       PTSUNNY   66  64  94 S10       29.98S
GRAFTON        FAIR      73  64  73 SE12G18   30.00S
CANDO          FAIR      75  68  78 S17       29.95F
FORT TOTTEN      N/A     72  65  78 S14       29.95S
ROLLA          FAIR      73  64  73 S13G25    29.95S
RUGBY          FAIR      77  64  65 S16G25    29.91S
 ***** THE ABOVE OBSERVATIONS ARE NON NWS ARE NOT QUALITY
        CONTROLLED AND MAY MIS-REPORT RAIN FOR SNOW...
$$

 *****  OTHER OBSERVATIONS SOUTHEAST NORTH DAKOTA *****

CITY           SKY/WX    TMP DP  RH WIND       PRES   REMARKS
COOPERSTOWN    NOT AVBL
VALLEY CITY    FAIR      73  68  83 SE16G22   29.99F
OAKES            N/A    N/A N/A N/A MISG        N/A
GWINNER        FAIR      79  70  73 S13       29.98F
SHEYENNE NWR     N/A     75  63  66 SE14      29.95S
BUFFALO          N/A     71  60  68 SE16        N/A
WYNDMERE         N/A     79  63  57 S12         N/A
 ***** THE ABOVE OBSERVATIONS ARE NON NWS ARE NOT QUALITY
       CONTROLLED AND MAY MIS-REPORT RAIN FOR SNOW...
$$

  *****  WEATHER ACROSS NORTHERN MINNESOTA  *****

CITY           SKY/WX    TMP DP  RH WIND       PRES   REMARKS
FLAG ISLAND    CLOUDY    63  61  94 S3        30.08S FOG
WARROAD        PTSUNNY   66  63  88 SE8       30.08S
ROSEAU         SUNNY     72  64  78 SE13      30.05S
HALLOCK        SUNNY     73  64  73 S15       29.99F
THF RVR FALLS  SUNNY     73  64  73 S13       30.05R
HALSTAD          N/A     73  64  75 SE17        N/A
FOSSTON        SUNNY     72  64  78 SE10      30.08R
BAUDETTE       CLOUDY    62  61  96 SE10      30.10R
WASKISH          N/A     64  64 100 S6        30.11S
CROOKSTON      SUNNY     73  64  73 SE14      30.01F
$$
  *****  WEATHER ACROSS CENTRAL AND WEST MINNESOTA  *****

CITY           SKY/WX    TMP DP  RH WIND       PRES   REMARKS
BEMIDJI        CLOUDY    64  62  91 SE10      30.12R
PARK RAPIDS    MOSUNNY   71  60  68 SE12      30.11F
WADENA         MOSUNNY   72  63  73 SE10      30.10S
DETROIT LAKES  MOSUNNY   70  63  78 S13       30.09R
MOORHEAD       SUNNY     72  63  73 SE10G17   30.02F
FERGUS FALLS   SUNNY     73  63  68 SE12G17   30.06S
ELBOW LAKE     PTSUNNY   73  64  73 E14       30.06S
MORRIS MN      SUNNY     75  64  69 SE13      30.05S
STAPLES        CLOUDY    70  63  78 S12       30.11S
WHEATON        SUNNY     79  64  61 SE15G29   30.04S
$$
  *****  WEATHER ELSEWHERE ACROSS MINNESOTA  *****

CITY           SKY/WX    TMP DP  RH WIND       PRES   REMARKS
DULUTH         CLOUDY    64  61  90 CALM      30.18S
INTRNTL FALLS  CLOUDY    61  59  93 SE7       30.14S
ELY            CLOUDY    61  57  88 SW5       30.18S
CLOQUET        CLOUDY    64  61  88 CALM      30.18R
BRAINERD       PTSUNNY   71  64  78 S10       30.13R
HIBBING        CLOUDY    59  59 100 SW6       30.17R
ALEXANDRIA     MOSUNNY   68  62  81 SE10      30.10F
SAINT CLOUD    CLOUDY    65  65 100 E6        30.13R FOG
MINNEAPOLIS    CLOUDY    72  66  81 S13       30.14F
$$

  *****  WEATHER ACROSS SOUTH DAKOTA  *****

CITY           SKY/WX    TMP DP  RH WIND       PRES   REMARKS
SIOUX FALLS    MOSUNNY   79  72  79 S13       30.08R
BROOKINGS      SUNNY     76  69  79 SE12      30.07S
WATERTOWN      SUNNY     77  68  73 SE18G24   30.04S
HURON          SUNNY     79  68  69 S17       29.98S
SISSETON         N/A     75  67  76 S18G26    30.00F
ABERDEEN       SUNNY     80  67  64 S16       29.95F
MITCHELL       SUNNY     80  69  69 S15       30.01S
PIERRE         SUNNY     80  66  62 SE13      29.91F
MOBRIDGE       SUNNY     79  64  60 S10       29.89S
RAPID CITY     SUNNY     78  55  44 SE3       29.98R
$$

  *****  SOME WEATHER IN NEARBY STATES *****

CITY           SKY/WX    TMP DP  RH WIND       PRES   REMARKS
GLASGOW MT     CLOUDY    74  51  44 SW6       29.88R
GREAT FALLS MT PTSUNNY   72  40  31 N10       30.01R
CHEYENNE WY    MOSUNNY   76  31  19 W3        30.22S
SCOTTSBLUFF NE SUNNY     75  57  53 CALM      30.09F
OMAHA NE       PTSUNNY   80  71  74 S9        30.11R
DES MOINES IA  PTSUNNY   82  73  74 S7        30.14S
DAVENPORT IA   SUNNY     83  74  74 E6        30.19R
CHICAGO IL     CLOUDY    81  71  71 NE7       30.20S
EAU CLAIRE WI  CLOUDY    69  65  86 SE6       30.20R
LA CROSSE WI   CLOUDY    71  68  90 E7        30.20R
$$

  *****  SOME NATIONAL WEATHER *****

CITY           SKY/WX    TMP DP  RH WIND       PRES   REMARKS
LA GUARDIA NY  MOSUNNY   85  57  38 SW5       30.25F
RALEIGH NC     PTSUNNY   81  70  69 NE7       30.22S
ATLANTA GA     MOSUNNY   84  71  65 NE12      30.19S
NEW ORLEANS LA CLOUDY    83  71  67 SE12      30.03R
OKLAHOMA CITY  MOSUNNY   84  72  67 S7        30.12S
ALBUQUERQUE NM MOSUNNY   67  50  54 NW7       30.28F
SALT LAKE CITY SUNNY     76  43  30 SE13      30.15S
LOS ANGELES CA MOSUNNY   69  61  75 SW6       30.03R
BOISE ID       SUNNY     70  41  34 NW3       30.10R
SEATTLE WA     PTSUNNY   61  49  64 S7        30.09R
$$

*** WEATHER ACROSS MANITOBA...SASKATCHEWAN AND ONTARIO ***
                ***ONTARIO***

CITY           SKY/WX    TMP DP  RH WIND       PRES   REMARKS
GERALDTON      MOSUNNY   66  54  63 N2        30.15S
THUNDER BAY    PTSUNNY   68  59  73 SW5       30.15R
SIOUX LOOKOUT  CLOUDY    61  55  82 SW6       30.14R
TORONTO        PTSUNNY   86  70  58 SW13      30.13S HX  90
BIG TROUT LK   SUNNY     66  57  72 S5        30.06R
PICKLE LAKE    PTSUNNY   64  55  72 SW8       30.12R
DRYDEN         CLOUDY    63  57  82 SW6       30.14R
KENORA         CLOUDY    61  57  88 SE5       30.10S
$$
                *** MANITOBA***

CITY           SKY/WX    TMP DP  RH WIND       PRES   REMARKS
BRANDON        PTSUNNY   73  61  64 SE13      29.88S
DAUPHIN        MOSUNNY   72  61  68 SE9       29.81S
ISLAND LAKE    PTSUNNY   66  61  82 SE7       30.01S
PILOT MOUND      N/A     77  63  61 S17         N/A
THE PAS        CLOUDY    64  57  77 SE17G24   29.74F
THOMPSON       PTSUNNY   68  57  68 S7        29.90S
WINNIPEG       MOSUNNY   72  63  73 SE16      29.97F
LYNN LAKE      CLOUDY    66  55  68 MISG      29.78F
CHURCHILL      MOSUNNY   64  55  72 E9        30.01S
GILLAM         PTSUNNY   70  59  68 SE5       29.96F
$$
                ***SASKATCHEWAN***

CITY           SKY/WX    TMP DP  RH WIND       PRES   REMARKS
ESTEVAN        PTSUNNY   72  55  56 SW12      29.86R
KINDERSLEY     PTSUNNY   54  45  71 NW15G26   29.95R
LLOYDMINSTER   PTSUNNY   50  45  81 W20G30    29.88R
PRINCE ALBERT  PTSUNNY   66  57  72 NW13G20   29.73R
REGINA         PTSUNNY   63  55  77 NW14G21   29.87R
YORKTON        PTSUNNY   61  54  77 S7        29.82R  C1F1C2F2C3F3C4F4C5F5C6F6C7F7C8F8C9F9CaFaCbFbCcFcCdFdCe!


USA.gov is the U.S. government's official web portal to all federal, state and local government web resources and services.